• In Uzbekistan
  • List of Countries
  • For 7 days
  • Water Temperature
  • Satellite Maps
  • Weather Map
  • Weather Widgets
  • user-avatar
    Login

    Hourly Weather Jinan

    Today, 18 November, Sunday

    Time Temperature Precipitation Wind Pressure Humidity
    00:00 +6°C° 0 mm 2 mps 763 mmHg 57%
    01:00 +6°C° 0 mm 2 mps 763 mmHg 59%
    02:00 +6°C° 0 mm 2 mps 762 mmHg 60%
    03:00 +6°C° 0 mm 2 mps 762 mmHg 61%
    04:00 +6°C° 0 mm 2 mps 762 mmHg 63%
    05:00 +6°C° 0 mm 2 mps 762 mmHg 64%
    06:00 +6°C° 0 mm 2 mps 762 mmHg 63%
    07:00 +6°C° 0 mm 2 mps 762 mmHg 63%
    08:00 +7°C° 0 mm 2 mps 762 mmHg 64%
    09:00 +8°C° 0 mm 2 mps 762 mmHg 58%
    10:00 +9°C° 0 mm 2 mps 763 mmHg 53%
    11:00 +10°C° 0 mm 3 mps 763 mmHg 47%
    12:00 +11°C° 0 mm 3 mps 762 mmHg 41%
    13:00 +12°C° 0 mm 3 mps 762 mmHg 35%
    14:00 +12°C° 0 mm 3 mps 761 mmHg 34%
    15:00 +12°C° 0 mm 2 mps 761 mmHg 33%
    16:00 +10°C° 0 mm 2 mps 761 mmHg 33%
    17:00 +10°C° 0 mm 1 mps 761 mmHg 32%
    18:00 +10°C° 0 mm 1 mps 761 mmHg 32%
    19:00 +9°C° 0 mm 1 mps 761 mmHg 32%
    20:00 +8°C° 0 mm 1 mps 762 mmHg 36%
    21:00 +8°C° 0 mm 1 mps 762 mmHg 36%
    22:00 +7°C° 0 mm 1 mps 762 mmHg 37%
    23:00 +7°C° 0 mm 1 mps 762 mmHg 37%

    Tomorrow, 19 November, Monday

    Time Temperature Precipitation Wind Pressure Humidity
    00:00 +7°C° 0 mm 1 mps 762 mmHg 37%
    01:00 +7°C° 0 mm 1 mps 763 mmHg 38%
    02:00 +6°C° 0 mm 1 mps 763 mmHg 39%
    03:00 +6°C° 0 mm 1 mps 763 mmHg 40%
    04:00 +6°C° 0 mm 1 mps 762 mmHg 41%
    05:00 +6°C° 0 mm 1 mps 762 mmHg 42%
    06:00 +5°C° 0 mm 2 mps 763 mmHg 43%
    07:00 +5°C° 0 mm 2 mps 763 mmHg 44%
    08:00 +5°C° 0 mm 2 mps 763 mmHg 44%
    09:00 +7°C° 0 mm 2 mps 763 mmHg 39%
    10:00 +10°C° 0 mm 3 mps 763 mmHg 34%
    11:00 +12°C° 0 mm 4 mps 763 mmHg 29%
    12:00 +12°C° 0 mm 4 mps 763 mmHg 28%
    13:00 +13°C° 0 mm 5 mps 762 mmHg 28%
    14:00 +13°C° 0 mm 5 mps 761 mmHg 27%
    15:00 +12°C° 0 mm 5 mps 761 mmHg 32%
    16:00 +11°C° 0 mm 4 mps 761 mmHg 36%
    17:00 +10°C° 0 mm 3 mps 761 mmHg 40%
    18:00 +10°C° 0 mm 4 mps 761 mmHg 43%
    19:00 +8°C° 0 mm 4 mps 761 mmHg 46%
    20:00 +8°C° 0 mm 4 mps 761 mmHg 48%
    21:00 +7°C° 0 mm 4 mps 761 mmHg 49%
    22:00 +7°C° 0 mm 4 mps 761 mmHg 50%
    23:00 +7°C° 0 mm 4 mps 761 mmHg 51%

    Day after tomorrow, 20 November, Tuesday

    Time Temperature Precipitation Wind Pressure Humidity
    00:00 +7°C° 0 mm 4 mps 761 mmHg 53%
    01:00 +6°C° 0 mm 4 mps 761 mmHg 54%
    02:00 +6°C° 0 mm 4 mps 761 mmHg 55%
    03:00 +6°C° 0 mm 4 mps 761 mmHg 57%
    04:00 +5°C° 0 mm 4 mps 761 mmHg 59%
    05:00 +5°C° 0 mm 4 mps 760 mmHg 61%
    06:00 +5°C° 0 mm 3 mps 761 mmHg 61%
    07:00 +5°C° 0 mm 3 mps 761 mmHg 62%
    08:00 +5°C° 0 mm 3 mps 762 mmHg 62%
    09:00 +9°C° 0 mm 3 mps 762 mmHg 56%
    10:00 +11°C° 0 mm 3 mps 762 mmHg 49%
    11:00 +13°C° 0 mm 3 mps 763 mmHg 42%
    12:00 +13°C° 0 mm 3 mps 762 mmHg 41%
    13:00 +14°C° 0 mm 3 mps 762 mmHg 39%
    14:00 +14°C° 0 mm 3 mps 761 mmHg 37%
    15:00 +14°C° 0 mm 2 mps 761 mmHg 40%
    16:00 +13°C° 0 mm 1 mps 761 mmHg 43%
    17:00 +13°C° 0 mm 1 mps 761 mmHg 46%
    18:00 +12°C° 0 mm 1 mps 762 mmHg 47%
    19:00 +12°C° 0 mm 1 mps 762 mmHg 47%
    20:00 +11°C° 0 mm 1 mps 762 mmHg 48%
    21:00 +11°C° 0 mm 1 mps 763 mmHg 48%
    22:00 +10°C° 0 mm 1 mps 763 mmHg 48%
    23:00 +9°C° 0 mm 2 mps 763 mmHg 49%

    21 November, Wednesday

    Time Temperature Precipitation Wind Pressure Humidity
    00:00 +9°C° 0 mm 1 mps 763 mmHg 50%
    01:00 +9°C° 0 mm 1 mps 763 mmHg 52%
    02:00 +9°C° 0 mm 1 mps 763 mmHg 54%
    03:00 +9°C° 0 mm 1 mps 763 mmHg 57%
    04:00 +8°C° 0 mm 1 mps 763 mmHg 60%
    05:00 +8°C° 0 mm 1 mps 763 mmHg 62%
    06:00 +7°C° 0 mm 2 mps 764 mmHg 65%
    07:00 +7°C° 0 mm 2 mps 764 mmHg 68%
    08:00 +7°C° 0 mm 2 mps 765 mmHg 71%
    09:00 +8°C° 0 mm 2 mps 765 mmHg 65%
    10:00 +10°C° 0 mm 3 mps 765 mmHg 60%
    11:00 +11°C° 0 mm 3 mps 765 mmHg 54%
    12:00 +11°C° 0 mm 4 mps 765 mmHg 46%
    13:00 +12°C° 0 mm 4 mps 764 mmHg 39%
    14:00 +12°C° 0 mm 5 mps 764 mmHg 31%
    15:00 +11°C° 0 mm 4 mps 764 mmHg 30%
    16:00 +10°C° 0 mm 3 mps 764 mmHg 30%
    17:00 +9°C° 0 mm 3 mps 764 mmHg 30%
    18:00 +8°C° 0 mm 2 mps 764 mmHg 33%
    19:00 +7°C° 0 mm 2 mps 765 mmHg 36%
    20:00 +7°C° 0 mm 1 mps 765 mmHg 39%
    21:00 +7°C° 0 mm 1 mps 765 mmHg 43%
    22:00 +6°C° 0 mm 1 mps 766 mmHg 47%
    23:00 +6°C° 0 mm 1 mps 766 mmHg 50%

    22 November, Thursday

    Time Temperature Precipitation Wind Pressure Humidity
    00:00 +6°C° 0 mm 1 mps 766 mmHg 50%
    01:00 +5°C° 0 mm 1 mps 765 mmHg 50%
    02:00 +5°C° 0 mm 1 mps 765 mmHg 50%
    03:00 +5°C° 0 mm 1 mps 765 mmHg 47%
    04:00 +5°C° 0 mm 1 mps 765 mmHg 44%
    05:00 +4°C° 0 mm 1 mps 765 mmHg 41%
    06:00 +5°C° 0 mm 1 mps 765 mmHg 39%
    07:00 +4°C° 0 mm 0 mps 766 mmHg 38%
    08:00 +4°C° 0 mm 0 mps 766 mmHg 36%
    09:00 +6°C° 0 mm 0 mps 767 mmHg 32%
    10:00 +8°C° 0 mm 0 mps 767 mmHg 27%
    11:00 +10°C° 0 mm 0 mps 767 mmHg 23%
    12:00 +10°C° 0 mm 0 mps 766 mmHg 21%
    13:00 +11°C° 0 mm 0 mps 766 mmHg 20%
    14:00 +11°C° 0 mm 0 mps 765 mmHg 19%
    15:00 +10°C° 0 mm 0 mps 765 mmHg 21%
    16:00 +9°C° 0 mm 0 mps 765 mmHg 23%
    17:00 +8°C° 0 mm 0 mps 765 mmHg 25%
    18:00 +9°C° 0 mm 1 mps 765 mmHg 26%
    19:00 +8°C° 0 mm 1 mps 765 mmHg 27%
    20:00 +7°C° 0 mm 2 mps 765 mmHg 29%
    21:00 +7°C° 0 mm 2 mps 765 mmHg 29%
    22:00 +7°C° 0 mm 2 mps 765 mmHg 30%
    23:00 +7°C° 0 mm 2 mps 765 mmHg 31%

    23 November, Friday

    Time Temperature Precipitation Wind Pressure Humidity
    00:00 +6°C° 0 mm 2 mps 765 mmHg 32%
    01:00 +6°C° 0 mm 2 mps 764 mmHg 33%
    02:00 +6°C° 0 mm 2 mps 764 mmHg 34%
    03:00 +5°C° 0 mm 3 mps 764 mmHg 36%
    04:00 +5°C° 0 mm 3 mps 763 mmHg 38%
    05:00 +5°C° 0 mm 3 mps 763 mmHg 40%
    06:00 +6°C° 0 mm 4 mps 763 mmHg 42%
    07:00 +6°C° 0 mm 4 mps 763 mmHg 44%
    08:00 +6°C° 0 mm 4 mps 763 mmHg 47%
    09:00 +7°C° 0 mm 5 mps 763 mmHg 45%
    10:00 +8°C° 0 mm 5 mps 763 mmHg 44%
    11:00 +10°C° 0 mm 6 mps 763 mmHg 42%
    12:00 +10°C° 0 mm 5 mps 762 mmHg 40%
    13:00 +12°C° 0 mm 5 mps 761 mmHg 38%
    14:00 +13°C° 0 mm 5 mps 760 mmHg 36%
    15:00 +12°C° 0 mm 4 mps 760 mmHg 38%
    16:00 +11°C° 0 mm 3 mps 760 mmHg 41%
    17:00 +10°C° 0 mm 2 mps 761 mmHg 43%
    18:00 +10°C° 0 mm 2 mps 761 mmHg 45%
    19:00 +9°C° 0 mm 2 mps 761 mmHg 48%
    20:00 +8°C° 0 mm 2 mps 762 mmHg 50%
    21:00 +8°C° 0 mm 2 mps 762 mmHg 51%
    22:00 +7°C° 0 mm 2 mps 762 mmHg 52%
    23:00 +8°C° 0 mm 1 mps 763 mmHg 53%
    Show more